Regional Weather Roundup
Issued by NWS Charleston, SC

Current Version | Previous Version | Graphics & Text | Print | Product List | Glossary On
Versions: 1 2 3 4 5 6 7 8 9 10 11 12 13 14 15 16 17 18 19 20 21 22 23 24 25 26 27 28 29 30 31 32 33 34 35 36 37 38 39 40 41 42 43 44 45 46 47 48 49 50
000
ASUS42 KCHS 261512
RWRCHS

Regional Weather Roundup
National Weather Service Charleston SC
1100 AM EDT SAT MAY 26 2018

NOTE: "fair" indicates few or no clouds below 12,000 feet with no
significant weather and/or obstructions to visibility.

Not all stations are quality controlled. Use data with caution,
especially dewpoint observations.

SCZ027-030-031-034>040-042>050-261600-
...Southeast South Carolina...

CITY           SKY/WX    TMP DP  RH WIND       PRES   REMARKS
N Charleston   PTSUNNY   84  72  67 S8        30.00F
Waterfront Prk   N/A     80  73  79 S10       29.86S
Mount Pleasant FAIR      82  73  74 S12G18    30.02S
Johns Island   PTSUNNY   82  73  74 S10G17    30.02F
Pinopolis        N/A     81  73  78 SW5       29.95S
Moncks Corner  PTSUNNY   79  70  73 SW5       30.01F
Summerville    HVY RAIN  77  70  78 S6        30.02F
Beaufort MCAS  FAIR      84  73  69 S6        30.01F HX  90
Beaufort Arpt  FAIR      81  72  74 S9        30.01F
Hilton Head Is MOSUNNY   81  73  78 SE6       30.03S
Walterboro     PTSUNNY   79  70  73 S7        30.02S
Allendale      PTSUNNY   81  72  74 CALM      30.00S

...Southern Midlands and Pee Dee...

CITY           SKY/WX    TMP DP  RH WIND       PRES   REMARKS
Georgetown     FAIR      81  73  78 S10       30.02F
Kingstree      PTSUNNY   82  72  69 S6        30.01S
Orangeburg     FAIR      81  70  69 S10       30.01S
Barnwell       PTSUNNY   79  72  78 SW7       30.01S
Aiken          CLOUDY    73  72  94 S3        30.05S
Manning        CLOUDY    77  68  73 SW7       30.01S
Columbia       CLOUDY    80  73  79 SW8       30.00S
Sumter         PTSUNNY   80  71  74 S9        29.98F
Florence       FAIR      82  71  69 S13       30.00F
Myrtle Beach   FAIR      81  73  76 S15       30.03S
N Myrtle Beach FAIR      80  73  79 S13       30.02S

$$

GAZ063-065-086>088-099>101-113>116-118-119-134>141-150-261600-
...Southeast Georgia...

CITY           SKY/WX    TMP DP  RH WIND       PRES   REMARKS
Savannah Arpt  PTSUNNY   81  70  69 S5        30.01F
Hunter AAF     LGT RAIN  77  71  83 CALM      29.99
Fort Stewart   FAIR      82  69  64 S3        29.99S
Statesboro     PTSUNNY   79  71  74 SW3       30.01S
Sylvania       FAIR      81  73  75 S6        30.02S
Claxton        PTSUNNY   82  72  71 S5        30.00F

...CSRA, Central and far Southeast Georgia...

CITY           SKY/WX    TMP DP  RH WIND       PRES   REMARKS
Thomson        CLOUDY    76  71  87 SW5       30.05S
Augusta-Bush   CLOUDY    77  72  84 S7        29.99F
Augusta-Daniel CLOUDY    77  72  84 S3        30.01S
Swainsboro     CLOUDY    77  72  83 S6        30.02S
Vidalia        PTSUNNY   81  68  65 SW5       30.01F
Eastman        PTSUNNY   82  65  56 S6        30.02S
Hazlehurst       N/A     80  69  70 SW7       29.99F
Alma           FAIR      80  70  71 S5        30.00S
Waycross       FAIR      80  72  76 S5        30.00F
Jesup          FAIR      82  68  61 CALM      30.01S
Baxley         FAIR      77  77 100 CALM      30.00F
Brunswick      CLOUDY    81  70  69 SE9       30.02S
Saint Simons   FAIR      80  73  79 SE6       30.01S

$$

SCZ027-028-034-036>038-045-046-048>050-GAZ119-141-261600-
...Lake and Supplemental Coastal Observations...

STATION/POSITION TIME  TEMP    WIND        PRES    WAVE   SWELL
                       AIR SEA DIR/SP/G            HT/PER HT/PER/DIR
                 (UTC) (F)     (DEG/KT/KT) (MB)    (FT/S) (FT/S/D)
Winyah Bay       1345   80     200/ 10     1017.0
Lake Murray      1420   75     200/  8/  9 1015.2R
ACE Basin NERRS  1345   81     170/  1     1016.0
Fort Pulaski     1436   80 79  180/  6/ 10 1016.8F
Sapelo Island    1400   80     170/  6     1016.0

$$

ANZ835-935-AMZ111-154-330-350-352-354-370-450-454-472-261600-
...C-MAN and Buoy Observations...

STATION/POSITION TIME  TEMP    WIND        PRES    WAVE   SWELL
                       AIR SEA DIR/SP/G            HT/PER HT/PER/DIR
                 (UTC) (F)     (DEG/KT/KT) (MB)    (FT/S) (FT/S/D)
Buoy 41004       1450      76  200/ 10/ 14 1016.9F   3/ 8   3/120/ 8
Buoy 41008       1450   77 77  140/ 10/ 12 1016.3S   2/ 9   2/100/ 9
Folly Beach CMAN 1400   78     170/  9/ 10 1017.4R
Capers Nearshore 1408   78 78  170/  8/ 12 1017.9R
Fripp Nearshore  1408   77 79  200/ 10/ 14 1016.6R


STATION/POSITION TIME  TEMP    WIND        PRES    WAVE   SWELL
                       AIR SEA DIR/SP/G            HT/PER HT/PER/DIR
                 (UTC) (F)     (DEG/KT/KT) (MB)    (FT/S) (FT/S/D)
5E St. Marys GA  1430      77                N/A     2/ 5
Frying Pan Buoy  1450   78 78  190/ 10/ 12 1017.2F   2/ 7   2/150/ 7
Buoy 41025       1450   77 78  230/ 12/ 16 1017.3S   2/ 8   2/130/ 8
Cape Lookout NC  1400          210/  8/ 10 1017.2F
Buoy 41002       1450      79  170/  8/ 10 1018.6S   3/ 9   2/140/ 9
Buoy 41010       1450   78 79  110/ 14/ 16 1017.4R   3/ 9   2/120/ 9
St Augustine FL  1500   77 78  110/  9/  9 1016.7F


$$




USA.gov is the U.S. government's official web portal to all federal, state and local government web resources and services.